Time,TemperatureF,DewpointF,PressureIn,WindDirection,WindDirectionDegrees,WindSpeedMPH,WindSpeedGustMPH,Humidity,HourlyPrecipIn,Conditions,Clouds,dailyrainin,SoftwareType,DateUTC
2013-10-15 00:02:00,71.3,69.5,29.95,SSE,150,10.0,14.0,94,0.00,,,0.00,Wunderground v.1.15,2013-10-15 05:02:00,
2013-10-15 00:08:00,71.4,69.6,29.95,South,189,9.0,14.0,94,0.00,,,0.00,Wunderground v.1.15,2013-10-15 05:08:00,
2013-10-15 00:14:00,71.3,69.5,29.95,SSW,203,9.0,10.0,94,0.00,,,0.00,Wunderground v.1.15,2013-10-15 05:14:00,
2013-10-15 00:20:00,71.3,69.5,29.95,SE,125,10.0,12.0,94,0.00,,,0.00,Wunderground v.1.15,2013-10-15 05:20:00,
2013-10-15 00:26:00,71.2,69.4,29.95,SSE,158,11.0,15.0,94,0.00,,,0.00,Wunderground v.1.15,2013-10-15 05:26:00,
2013-10-15 00:32:00,71.2,69.4,29.95,South,174,10.0,10.0,94,0.00,,,0.00,Wunderground v.1.15,2013-10-15 05:32:00,
2013-10-15 00:38:00,71.2,69.7,29.95,SE,143,9.0,10.0,95,0.00,,,0.00,Wunderground v.1.15,2013-10-15 05:38:00,
2013-10-15 00:44:00,71.1,69.6,29.95,SSE,150,10.0,12.0,95,0.00,,,0.00,Wunderground v.1.15,2013-10-15 05:44:00,
2013-10-15 00:50:00,71.1,69.6,29.95,SE,143,9.0,11.0,95,0.00,,,0.00,Wunderground v.1.15,2013-10-15 05:50:00,
2013-10-15 00:56:00,71.0,69.5,29.95,SSE,148,10.0,11.0,95,0.00,,,0.00,Wunderground v.1.15,2013-10-15 05:56:00,
2013-10-15 01:02:00,70.9,69.4,29.94,SSE,162,10.0,14.0,95,0.00,,,0.00,Wunderground v.1.15,2013-10-15 06:02:00,
2013-10-15 01:08:00,70.8,69.3,29.94,SSE,150,10.0,14.0,95,0.00,,,0.00,Wunderground v.1.15,2013-10-15 06:08:00,
2013-10-15 01:14:00,70.7,69.5,29.94,SE,146,9.0,12.0,96,0.00,,,0.00,Wunderground v.1.15,2013-10-15 06:14:00,
2013-10-15 01:20:00,70.5,69.3,29.94,SW,214,7.0,7.0,96,0.00,,,0.00,Wunderground v.1.15,2013-10-15 06:20:00,
2013-10-15 01:26:00,70.4,69.2,29.94,South,181,7.0,10.0,96,0.00,,,0.00,Wunderground v.1.15,2013-10-15 06:26:00,
2013-10-15 01:32:00,70.4,69.2,29.94,SSE,158,8.0,10.0,96,0.00,,,0.00,Wunderground v.1.15,2013-10-15 06:32:00,
2013-10-15 01:38:00,70.4,69.2,29.94,SSE,153,8.0,11.0,96,0.00,,,0.00,Wunderground v.1.15,2013-10-15 06:38:00,
2013-10-15 01:44:00,70.4,69.2,29.94,SSE,161,8.0,12.0,96,0.00,,,0.00,Wunderground v.1.15,2013-10-15 06:44:00,
2013-10-15 01:50:00,70.4,69.2,29.95,SSE,152,9.0,9.0,96,0.00,,,0.00,Wunderground v.1.15,2013-10-15 06:50:00,
2013-10-15 01:56:00,70.4,69.2,29.95,SSE,160,8.0,10.0,96,0.00,,,0.00,Wunderground v.1.15,2013-10-15 06:56:00,
2013-10-15 02:02:00,70.4,69.2,29.95,SSE,156,7.0,8.0,96,0.00,,,0.00,Wunderground v.1.15,2013-10-15 07:02:00,
2013-10-15 02:08:00,70.4,69.2,29.95,SE,136,7.0,10.0,96,0.00,,,0.00,Wunderground v.1.15,2013-10-15 07:08:00,
2013-10-15 02:14:00,70.5,69.3,29.95,SE,137,8.0,10.0,96,0.00,,,0.00,Wunderground v.1.15,2013-10-15 07:14:00,
2013-10-15 02:20:00,70.5,69.0,29.95,SSE,156,8.0,10.0,95,0.00,,,0.00,Wunderground v.1.15,2013-10-15 07:20:00,
2013-10-15 02:26:00,70.5,69.0,29.95,SE,138,8.0,10.0,95,0.00,,,0.00,Wunderground v.1.15,2013-10-15 07:26:00,
2013-10-15 02:32:00,70.5,69.0,29.95,SE,141,8.0,10.0,95,0.00,,,0.00,Wunderground v.1.15,2013-10-15 07:32:00,
2013-10-15 02:38:00,70.5,69.0,29.95,South,169,8.0,10.0,95,0.00,,,0.00,Wunderground v.1.15,2013-10-15 07:38:00,
2013-10-15 02:44:00,70.5,69.0,29.94,South,178,8.0,10.0,95,0.00,,,0.00,Wunderground v.1.15,2013-10-15 07:44:00,
2013-10-15 02:50:00,70.4,68.9,29.95,SSE,155,9.0,12.0,95,0.00,,,0.00,Wunderground v.1.15,2013-10-15 07:50:00,
2013-10-15 02:56:00,70.4,68.9,29.94,SE,139,9.0,12.0,95,0.00,,,0.00,Wunderground v.1.15,2013-10-15 07:56:00,
2013-10-15 03:02:00,70.3,68.8,29.94,SSE,149,9.0,11.0,95,0.00,,,0.00,Wunderground v.1.15,2013-10-15 08:02:00,
2013-10-15 03:08:00,70.2,69.0,29.94,South,186,8.0,11.0,96,0.00,,,0.00,Wunderground v.1.15,2013-10-15 08:08:00,
2013-10-15 03:14:00,70.1,68.9,29.94,SE,138,7.0,10.0,96,0.00,,,0.00,Wunderground v.1.15,2013-10-15 08:14:00,
2013-10-15 03:20:00,70.1,68.9,29.93,SSE,148,8.0,10.0,96,0.00,,,0.00,Wunderground v.1.15,2013-10-15 08:20:00,
2013-10-15 03:26:00,70.1,68.9,29.93,SE,145,8.0,10.0,96,0.00,,,0.00,Wunderground v.1.15,2013-10-15 08:26:00,
2013-10-15 03:32:00,70.1,68.9,29.93,SSW,198,8.0,10.0,96,0.00,,,0.00,Wunderground v.1.15,2013-10-15 08:32:00,
2013-10-15 03:38:00,70.1,68.9,29.93,ESE,117,7.0,10.0,96,0.00,,,0.00,Wunderground v.1.15,2013-10-15 08:38:00,
2013-10-15 03:44:00,70.1,68.6,29.93,SSE,167,8.0,10.0,95,0.00,,,0.00,Wunderground v.1.15,2013-10-15 08:44:00,
2013-10-15 03:50:00,70.1,68.6,29.93,SSE,153,7.0,7.0,95,0.00,,,0.00,Wunderground v.1.15,2013-10-15 08:50:00,
2013-10-15 03:56:00,70.1,68.6,29.93,SSE,158,6.0,11.0,95,0.00,,,0.00,Wunderground v.1.15,2013-10-15 08:56:00,
2013-10-15 03:58:00,70.1,68.6,29.92,South,188,7.0,11.0,95,0.00,,,0.00,Wunderground v.1.15,2013-10-15 08:58:00,
2013-10-15 04:04:00,70.1,68.6,29.92,SSW,201,7.0,11.0,95,0.00,,,0.00,Wunderground v.1.15,2013-10-15 09:04:00,
2013-10-15 04:10:00,70.1,68.6,29.92,South,184,8.0,8.0,95,0.00,,,0.00,Wunderground v.1.15,2013-10-15 09:10:00,
2013-10-15 04:16:00,70.1,68.6,29.92,South,169,8.0,10.0,95,0.00,,,0.00,Wunderground v.1.15,2013-10-15 09:16:00,
2013-10-15 04:22:00,70.1,68.6,29.92,SSE,150,7.0,9.0,95,0.00,,,0.00,Wunderground v.1.15,2013-10-15 09:22:00,
2013-10-15 04:28:00,70.1,68.6,29.91,SSE,168,8.0,10.0,95,0.00,,,0.00,Wunderground v.1.15,2013-10-15 09:28:00,
2013-10-15 04:34:00,70.1,68.6,29.91,SSE,165,8.0,12.0,95,0.00,,,0.00,Wunderground v.1.15,2013-10-15 09:34:00,
2013-10-15 04:40:00,70.1,68.6,29.91,South,186,7.0,10.0,95,0.00,,,0.00,Wunderground v.1.15,2013-10-15 09:40:00,
2013-10-15 04:46:00,70.1,68.6,29.92,SSW,205,7.0,10.0,95,0.00,,,0.00,Wunderground v.1.15,2013-10-15 09:46:00,
2013-10-15 04:52:00,70.1,68.6,29.91,South,175,7.0,10.0,95,0.00,,,0.00,Wunderground v.1.15,2013-10-15 09:52:00,
2013-10-15 04:58:00,70.1,68.6,29.92,SSE,162,6.0,10.0,95,0.00,,,0.00,Wunderground v.1.15,2013-10-15 09:58:00,
2013-10-15 05:04:00,70.1,68.6,29.92,SW,226,6.0,10.0,95,0.00,,,0.00,Wunderground v.1.15,2013-10-15 10:04:00,
2013-10-15 05:10:00,70.1,68.6,29.92,SSE,165,6.0,6.0,95,0.00,,,0.00,Wunderground v.1.15,2013-10-15 10:10:00,
2013-10-15 05:16:00,70.1,68.6,29.92,SSE,156,5.0,10.0,95,0.00,,,0.00,Wunderground v.1.15,2013-10-15 10:16:00,
2013-10-15 05:22:00,70.1,68.6,29.92,SSE,161,5.0,10.0,95,0.00,,,0.00,Wunderground v.1.15,2013-10-15 10:22:00,
2013-10-15 05:28:00,70.1,68.6,29.92,South,180,6.0,10.0,95,0.00,,,0.00,Wunderground v.1.15,2013-10-15 10:28:00,
2013-10-15 05:34:00,70.1,68.6,29.92,SSE,153,6.0,10.0,95,0.00,,,0.00,Wunderground v.1.15,2013-10-15 10:34:00,
2013-10-15 05:40:00,70.1,68.6,29.92,SSE,159,6.0,6.0,95,0.00,,,0.00,Wunderground v.1.15,2013-10-15 10:40:00,
2013-10-15 05:46:00,70.0,68.5,29.92,SSE,162,6.0,10.0,95,0.00,,,0.00,Wunderground v.1.15,2013-10-15 10:46:00,
2013-10-15 05:52:00,70.0,68.8,29.91,South,188,7.0,10.0,96,0.00,,,0.00,Wunderground v.1.15,2013-10-15 10:52:00,
2013-10-15 05:58:00,70.0,68.8,29.92,SSE,165,7.0,13.0,96,0.00,,,0.00,Wunderground v.1.15,2013-10-15 10:58:00,
2013-10-15 06:04:00,70.1,68.9,29.92,South,176,8.0,11.0,96,0.00,,,0.00,Wunderground v.1.15,2013-10-15 11:04:00,
2013-10-15 06:10:00,70.0,68.8,29.92,SSE,165,8.0,8.0,96,0.00,,,0.00,Wunderground v.1.15,2013-10-15 11:10:00,
2013-10-15 06:16:00,69.9,68.7,29.92,SSE,157,8.0,8.0,96,0.00,,,0.00,Wunderground v.1.15,2013-10-15 11:16:00,
2013-10-15 06:22:00,69.8,68.9,29.92,SW,217,8.0,9.0,97,0.00,,,0.00,Wunderground v.1.15,2013-10-15 11:22:00,
2013-10-15 06:28:00,69.9,69.0,29.91,South,170,8.0,9.0,97,0.00,,,0.00,Wunderground v.1.15,2013-10-15 11:28:00,
2013-10-15 06:34:00,69.8,68.9,29.92,SE,136,9.0,12.0,97,0.00,,,0.00,Wunderground v.1.15,2013-10-15 11:34:00,
2013-10-15 06:40:00,69.8,68.9,29.92,South,173,9.0,10.0,97,0.00,,,0.00,Wunderground v.1.15,2013-10-15 11:40:00,
2013-10-15 06:46:00,69.9,69.0,29.92,SE,138,9.0,11.0,97,0.00,,,0.00,Wunderground v.1.15,2013-10-15 11:46:00,
2013-10-15 06:52:00,69.9,69.0,29.92,SSE,167,8.0,11.0,97,0.00,,,0.00,Wunderground v.1.15,2013-10-15 11:52:00,
2013-10-15 06:58:00,69.9,69.0,29.92,SSE,153,8.0,12.0,97,0.00,,,0.00,Wunderground v.1.15,2013-10-15 11:58:00,
2013-10-15 07:04:00,70.0,69.1,29.92,South,169,9.0,12.0,97,0.00,,,0.00,Wunderground v.1.15,2013-10-15 12:04:00,
2013-10-15 07:10:00,70.0,68.8,29.92,SE,136,9.0,12.0,96,0.00,,,0.00,Wunderground v.1.15,2013-10-15 12:10:00,
2013-10-15 07:16:00,70.1,68.9,29.92,South,177,10.0,13.0,96,0.00,,,0.00,Wunderground v.1.15,2013-10-15 12:16:00,
2013-10-15 07:22:00,70.1,68.9,29.92,SSW,194,10.0,12.0,96,0.00,,,0.00,Wunderground v.1.15,2013-10-15 12:22:00,
2013-10-15 07:28:00,70.2,69.0,29.92,SSE,167,10.0,12.0,96,0.00,,,0.00,Wunderground v.1.15,2013-10-15 12:28:00,
2013-10-15 07:36:00,70.2,68.7,29.92,SSW,207,11.0,13.0,95,0.00,,,0.00,Wunderground v.1.15,2013-10-15 12:36:00,
2013-10-15 07:42:00,70.3,68.8,29.92,SSW,213,11.0,12.0,95,0.00,,,0.00,Wunderground v.1.15,2013-10-15 12:42:00,
2013-10-15 07:48:00,70.2,68.7,29.92,SSW,212,9.0,12.0,95,0.00,,,0.00,Wunderground v.1.15,2013-10-15 12:48:00,
2013-10-15 07:54:00,70.3,68.8,29.92,South,180,9.0,14.0,95,0.00,,,0.00,Wunderground v.1.15,2013-10-15 12:54:00,
2013-10-15 08:00:00,70.3,68.8,29.92,SW,215,10.0,15.0,95,0.00,,,0.00,Wunderground v.1.15,2013-10-15 13:00:00,
2013-10-15 08:06:00,70.3,68.8,29.92,SSE,167,10.0,15.0,95,0.00,,,0.00,Wunderground v.1.15,2013-10-15 13:06:00,
2013-10-15 08:12:00,70.3,68.8,29.92,South,183,10.0,12.0,95,0.00,,,0.00,Wunderground v.1.15,2013-10-15 13:12:00,
2013-10-15 08:18:00,70.5,69.0,29.92,South,169,10.0,12.0,95,0.00,,,0.00,Wunderground v.1.15,2013-10-15 13:18:00,
2013-10-15 08:24:00,70.6,69.1,29.92,SSE,158,9.0,12.0,95,0.00,,,0.00,Wunderground v.1.15,2013-10-15 13:24:00,
2013-10-15 08:30:00,70.7,69.2,29.93,SSW,195,9.0,9.0,95,0.00,,,0.00,Wunderground v.1.15,2013-10-15 13:30:00,
2013-10-15 08:36:00,70.7,69.2,29.93,SSW,198,9.0,13.0,95,0.00,,,0.00,Wunderground v.1.15,2013-10-15 13:36:00,
2013-10-15 08:42:00,70.7,69.2,29.93,SSE,165,9.0,11.0,95,0.00,,,0.00,Wunderground v.1.15,2013-10-15 13:42:00,
2013-10-15 08:48:00,70.7,69.2,29.94,SW,214,8.0,12.0,95,0.00,,,0.00,Wunderground v.1.15,2013-10-15 13:48:00,
2013-10-15 08:54:00,70.8,69.0,29.93,SSE,165,9.0,12.0,94,0.00,,,0.00,Wunderground v.1.15,2013-10-15 13:54:00,
2013-10-15 09:00:00,70.8,69.0,29.94,South,183,9.0,12.0,94,0.00,,,0.00,Wunderground v.1.15,2013-10-15 14:00:00,
2013-10-15 09:06:00,71.0,68.9,29.94,SSW,193,9.0,12.0,93,0.00,,,0.00,Wunderground v.1.15,2013-10-15 14:06:00,
2013-10-15 09:12:00,71.0,68.9,29.94,SSE,166,10.0,15.0,93,0.00,,,0.00,Wunderground v.1.15,2013-10-15 14:12:00,
2013-10-15 09:18:00,71.1,69.0,29.94,SSE,159,10.0,15.0,93,0.00,,,0.00,Wunderground v.1.15,2013-10-15 14:18:00,
2013-10-15 09:24:00,71.1,69.0,29.94,SE,145,10.0,13.0,93,0.00,,,0.00,Wunderground v.1.15,2013-10-15 14:24:00,
2013-10-15 09:30:00,71.2,69.1,29.94,SW,217,10.0,14.0,93,0.00,,,0.00,Wunderground v.1.15,2013-10-15 14:30:00,
2013-10-15 09:36:00,71.3,69.2,29.94,SSW,198,9.0,14.0,93,0.00,,,0.00,Wunderground v.1.15,2013-10-15 14:36:00,
2013-10-15 09:42:00,71.4,69.3,29.94,SSW,210,9.0,12.0,93,0.00,,,0.00,Wunderground v.1.15,2013-10-15 14:42:00,
2013-10-15 09:48:00,71.4,69.3,29.94,SSE,165,9.0,12.0,93,0.00,,,0.00,Wunderground v.1.15,2013-10-15 14:48:00,
2013-10-15 09:54:00,71.5,69.1,29.95,SSW,212,9.0,13.0,92,0.00,,,0.00,Wunderground v.1.15,2013-10-15 14:54:00,
2013-10-15 10:00:00,71.7,69.3,29.94,SSW,201,10.0,13.0,92,0.00,,,0.00,Wunderground v.1.15,2013-10-15 15:00:00,
2013-10-15 10:06:00,71.8,69.0,29.95,SSW,212,11.0,14.0,91,0.00,,,0.00,Wunderground v.1.15,2013-10-15 15:06:00,
2013-10-15 10:12:00,71.9,69.1,29.95,SSE,158,11.0,13.0,91,0.00,,,0.00,Wunderground v.1.15,2013-10-15 15:12:00,
2013-10-15 10:18:00,72.0,69.2,29.95,SW,215,11.0,13.0,91,0.00,,,0.00,Wunderground v.1.15,2013-10-15 15:18:00,
2013-10-15 10:24:00,72.0,68.9,29.95,SSW,212,11.0,14.0,90,0.00,,,0.00,Wunderground v.1.15,2013-10-15 15:24:00,
2013-10-15 10:30:00,72.0,68.9,29.95,South,184,11.0,11.0,90,0.00,,,0.00,Wunderground v.1.15,2013-10-15 15:30:00,
2013-10-15 10:36:00,72.1,69.0,29.95,South,184,11.0,15.0,90,0.00,,,0.00,Wunderground v.1.15,2013-10-15 15:36:00,
2013-10-15 10:42:00,72.3,68.9,29.94,SSE,154,11.0,17.0,89,0.00,,,0.00,Wunderground v.1.15,2013-10-15 15:42:00,
2013-10-15 10:48:00,72.2,68.4,29.94,SSE,156,11.0,17.0,88,0.00,,,0.00,Wunderground v.1.15,2013-10-15 15:48:00,
2013-10-15 10:54:00,72.1,68.3,29.94,SE,124,11.0,15.0,88,0.00,,,0.00,Wunderground v.1.15,2013-10-15 15:54:00,
2013-10-15 11:00:00,72.0,68.2,29.94,SSE,148,12.0,13.0,88,0.00,,,0.00,Wunderground v.1.15,2013-10-15 16:00:00,
2013-10-15 11:06:00,71.9,68.2,29.93,SE,146,13.0,13.0,88,0.00,,,0.00,Wunderground v.1.15,2013-10-15 16:06:00,
2013-10-15 11:12:00,71.9,68.5,29.94,SSE,167,12.0,15.0,89,0.00,,,0.00,Wunderground v.1.15,2013-10-15 16:12:00,
2013-10-15 11:18:00,72.0,68.2,29.94,SSW,212,12.0,15.0,88,0.00,,,0.00,Wunderground v.1.15,2013-10-15 16:18:00,
2013-10-15 11:24:00,71.8,68.4,29.94,SSW,195,11.0,13.0,89,0.00,,,0.00,Wunderground v.1.15,2013-10-15 16:24:00,
2013-10-15 11:30:00,71.8,68.4,29.94,SSW,206,9.0,9.0,89,0.00,,,0.00,Wunderground v.1.15,2013-10-15 16:30:00,
2013-10-15 11:36:00,71.8,68.4,29.95,SE,145,9.0,12.0,89,0.00,,,0.00,Wunderground v.1.15,2013-10-15 16:36:00,
2013-10-15 11:42:00,72.0,68.6,29.95,SSE,165,10.0,13.0,89,0.00,,,0.00,Wunderground v.1.15,2013-10-15 16:42:00,
2013-10-15 11:48:00,72.4,69.0,29.94,SSE,153,9.0,13.0,89,0.00,,,0.00,Wunderground v.1.15,2013-10-15 16:48:00,
2013-10-15 11:54:00,72.7,68.9,29.94,South,170,9.0,12.0,88,0.00,,,0.00,Wunderground v.1.15,2013-10-15 16:54:00,
2013-10-15 12:00:00,72.9,68.8,29.94,South,170,10.0,10.0,87,0.00,,,0.00,Wunderground v.1.15,2013-10-15 17:00:00,
2013-10-15 12:06:00,73.3,69.2,29.94,SSW,204,9.0,12.0,87,0.00,,,0.00,Wunderground v.1.15,2013-10-15 17:06:00,
2013-10-15 12:12:00,73.7,69.2,29.94,SSW,203,8.0,13.0,86,0.00,,,0.00,Wunderground v.1.15,2013-10-15 17:12:00,
2013-10-15 12:18:00,73.9,69.1,29.94,SE,132,9.0,13.0,85,0.00,,,0.00,Wunderground v.1.15,2013-10-15 17:18:00,
2013-10-15 12:24:00,74.1,69.3,29.94,SSE,158,10.0,12.0,85,0.00,,,0.00,Wunderground v.1.15,2013-10-15 17:24:00,
2013-10-15 12:30:00,74.3,69.5,29.93,SSE,161,10.0,10.0,85,0.00,,,0.00,Wunderground v.1.15,2013-10-15 17:30:00,
2013-10-15 12:36:00,74.4,69.2,29.93,SSE,165,9.0,13.0,84,0.00,,,0.00,Wunderground v.1.15,2013-10-15 17:36:00,
2013-10-15 12:42:00,74.4,69.2,29.93,South,178,9.0,12.0,84,0.00,,,0.00,Wunderground v.1.15,2013-10-15 17:42:00,
2013-10-15 12:48:00,75.2,70.0,29.93,SSE,156,8.0,12.0,84,0.00,,,0.00,Wunderground v.1.15,2013-10-15 17:48:00,
2013-10-15 12:54:00,75.3,69.1,29.93,SSW,200,8.0,12.0,81,0.00,,,0.00,Wunderground v.1.15,2013-10-15 17:54:00,
2013-10-15 13:00:00,75.9,69.3,29.92,SE,142,9.0,12.0,80,0.00,,,0.00,Wunderground v.1.15,2013-10-15 18:00:00,
2013-10-15 13:06:00,76.1,69.1,29.92,SSE,159,9.0,14.0,79,0.00,,,0.00,Wunderground v.1.15,2013-10-15 18:06:00,
2013-10-15 13:12:00,76.2,69.2,29.92,SSW,192,10.0,12.0,79,0.00,,,0.00,Wunderground v.1.15,2013-10-15 18:12:00,
2013-10-15 13:18:00,76.1,69.1,29.91,SW,223,10.0,12.0,79,0.00,,,0.00,Wunderground v.1.15,2013-10-15 18:18:00,
2013-10-15 13:24:00,75.9,68.5,29.91,SSE,153,10.0,13.0,78,0.00,,,0.00,Wunderground v.1.15,2013-10-15 18:24:00,
2013-10-15 13:30:00,76.3,68.6,29.91,South,173,10.0,13.0,77,0.00,,,0.00,Wunderground v.1.15,2013-10-15 18:30:00,
2013-10-15 13:36:00,77.2,69.8,29.91,SSW,208,10.0,14.0,78,0.00,,,0.00,Wunderground v.1.15,2013-10-15 18:36:00,
2013-10-15 13:42:00,78.1,70.3,29.91,SW,234,9.0,13.0,77,0.00,,,0.00,Wunderground v.1.15,2013-10-15 18:42:00,
2013-10-15 13:48:00,78.3,69.3,29.91,SSE,159,9.0,13.0,74,0.00,,,0.00,Wunderground v.1.15,2013-10-15 18:48:00,
2013-10-15 13:54:00,78.0,69.8,29.90,SSE,152,10.0,14.0,76,0.00,,,0.00,Wunderground v.1.15,2013-10-15 18:54:00,
2013-10-15 14:00:00,78.3,69.7,29.90,SSE,155,9.0,9.0,75,0.00,,,0.00,Wunderground v.1.15,2013-10-15 19:00:00,
2013-10-15 14:06:00,78.2,69.2,29.89,South,188,9.0,12.0,74,0.00,,,0.00,Wunderground v.1.15,2013-10-15 19:06:00,
2013-10-15 14:12:00,79.0,69.2,29.89,SE,143,9.0,12.0,72,0.00,,,0.00,Wunderground v.1.15,2013-10-15 19:12:00,
2013-10-15 14:18:00,78.9,69.9,29.89,South,176,9.0,12.0,74,0.00,,,0.00,Wunderground v.1.15,2013-10-15 19:18:00,
2013-10-15 14:24:00,79.2,69.4,29.88,South,186,9.0,14.0,72,0.00,,,0.00,Wunderground v.1.15,2013-10-15 19:24:00,
2013-10-15 14:30:00,79.0,68.8,29.88,South,180,10.0,10.0,71,0.00,,,0.00,Wunderground v.1.15,2013-10-15 19:30:00,
2013-10-15 14:36:00,79.1,68.5,29.87,South,172,10.0,13.0,70,0.00,,,0.00,Wunderground v.1.15,2013-10-15 19:36:00,
2013-10-15 14:42:00,79.1,69.3,29.88,South,184,10.0,15.0,72,0.00,,,0.00,Wunderground v.1.15,2013-10-15 19:42:00,
2013-10-15 14:48:00,79.3,68.7,29.87,South,169,10.0,15.0,70,0.00,,,0.00,Wunderground v.1.15,2013-10-15 19:48:00,
2013-10-15 14:54:00,78.8,68.6,29.88,SSE,160,10.0,12.0,71,0.00,,,0.00,Wunderground v.1.15,2013-10-15 19:54:00,
2013-10-15 15:00:00,78.2,68.4,29.87,SE,142,8.0,8.0,72,0.00,,,0.00,Wunderground v.1.15,2013-10-15 20:00:00,
2013-10-15 15:06:00,78.0,69.0,29.87,SSW,197,7.0,12.0,74,0.00,,,0.00,Wunderground v.1.15,2013-10-15 20:06:00,
2013-10-15 15:12:00,77.7,68.7,29.87,SSE,158,7.0,12.0,74,0.00,,,0.00,Wunderground v.1.15,2013-10-15 20:12:00,
2013-10-15 15:18:00,77.7,68.7,29.87,SSW,195,7.0,12.0,74,0.00,,,0.00,Wunderground v.1.15,2013-10-15 20:18:00,
2013-10-15 15:24:00,77.7,68.7,29.87,SE,131,7.0,12.0,74,0.00,,,0.00,Wunderground v.1.15,2013-10-15 20:24:00,
2013-10-15 15:30:00,77.4,68.5,29.87,South,170,8.0,12.0,74,0.00,,,0.00,Wunderground v.1.15,2013-10-15 20:30:00,
2013-10-15 15:36:00,77.5,68.6,29.87,SSE,151,7.0,12.0,74,0.00,,,0.00,Wunderground v.1.15,2013-10-15 20:36:00,
2013-10-15 15:42:00,77.5,68.9,29.87,South,169,5.0,12.0,75,0.00,,,0.00,Wunderground v.1.15,2013-10-15 20:42:00,
2013-10-15 15:48:00,77.9,69.3,29.86,SSE,150,6.0,12.0,75,0.00,,,0.00,Wunderground v.1.15,2013-10-15 20:48:00,
2013-10-15 15:54:00,78.9,69.5,29.86,SSE,165,6.0,12.0,73,0.00,,,0.00,Wunderground v.1.15,2013-10-15 20:54:00,
2013-10-15 16:00:00,78.8,69.8,29.86,SE,144,7.0,12.0,74,0.00,,,0.00,Wunderground v.1.15,2013-10-15 21:00:00,
2013-10-15 16:06:00,78.1,69.9,29.86,SSE,148,7.0,12.0,76,0.00,,,0.00,Wunderground v.1.15,2013-10-15 21:06:00,
2013-10-15 16:12:00,77.6,69.4,29.86,South,174,6.0,12.0,76,0.00,,,0.00,Wunderground v.1.15,2013-10-15 21:12:00,
2013-10-15 16:18:00,77.2,69.4,29.86,SSE,162,6.0,12.0,77,0.00,,,0.00,Wunderground v.1.15,2013-10-15 21:18:00,
2013-10-15 16:24:00,77.1,69.3,29.86,SSW,193,6.0,12.0,77,0.00,,,0.00,Wunderground v.1.15,2013-10-15 21:24:00,
2013-10-15 16:30:00,77.0,69.6,29.86,SSE,152,5.0,12.0,78,0.00,,,0.00,Wunderground v.1.15,2013-10-15 21:30:00,
2013-10-15 16:36:00,77.0,69.2,29.86,South,169,5.0,12.0,77,0.00,,,0.00,Wunderground v.1.15,2013-10-15 21:36:00,
2013-10-15 16:42:00,76.9,69.1,29.86,SSE,158,5.0,12.0,77,0.00,,,0.00,Wunderground v.1.15,2013-10-15 21:42:00,
2013-10-15 16:48:00,77.0,69.6,29.86,SSE,159,3.0,12.0,78,0.00,,,0.00,Wunderground v.1.15,2013-10-15 21:48:00,
2013-10-15 16:54:00,77.0,70.0,29.86,SE,138,3.0,12.0,79,0.00,,,0.00,Wunderground v.1.15,2013-10-15 21:54:00,
2013-10-15 17:00:00,77.0,69.6,29.85,ESE,123,3.0,12.0,78,0.00,,,0.00,Wunderground v.1.15,2013-10-15 22:00:00,
2013-10-15 17:06:00,76.9,69.5,29.86,SE,146,3.0,12.0,78,0.00,,,0.00,Wunderground v.1.15,2013-10-15 22:06:00,
2013-10-15 17:12:00,76.8,69.4,29.85,SE,137,3.0,12.0,78,0.00,,,0.00,Wunderground v.1.15,2013-10-15 22:12:00,
2013-10-15 17:18:00,76.8,69.4,29.85,SE,145,3.0,12.0,78,0.00,,,0.00,Wunderground v.1.15,2013-10-15 22:18:00,
2013-10-15 17:24:00,76.7,69.3,29.85,SSE,150,2.0,12.0,78,0.00,,,0.00,Wunderground v.1.15,2013-10-15 22:24:00,
2013-10-15 17:30:00,76.7,69.7,29.85,SE,138,2.0,2.0,79,0.00,,,0.00,Wunderground v.1.15,2013-10-15 22:30:00,
2013-10-15 17:36:00,76.6,69.6,29.85,SE,139,2.0,12.0,79,0.00,,,0.00,Wunderground v.1.15,2013-10-15 22:36:00,
2013-10-15 17:42:00,76.5,69.5,29.86,SE,141,1.0,12.0,79,0.00,,,0.00,Wunderground v.1.15,2013-10-15 22:42:00,
2013-10-15 17:48:00,76.4,69.8,29.86,SE,144,1.0,12.0,80,0.00,,,0.00,Wunderground v.1.15,2013-10-15 22:48:00,
2013-10-15 17:54:00,76.3,69.7,29.86,SE,143,1.0,12.0,80,0.00,,,0.00,Wunderground v.1.15,2013-10-15 22:54:00,
2013-10-15 18:00:00,76.2,69.9,29.86,SSE,156,1.0,12.0,81,0.00,,,0.00,Wunderground v.1.15,2013-10-15 23:00:00,
2013-10-15 18:06:00,76.1,69.8,29.86,SE,136,1.0,12.0,81,0.00,,,0.00,Wunderground v.1.15,2013-10-15 23:06:00,
2013-10-15 18:12:00,75.9,69.6,29.86,SE,136,1.0,12.0,81,0.00,,,0.00,Wunderground v.1.15,2013-10-15 23:12:00,
2013-10-15 18:18:00,75.8,69.9,29.86,SE,136,1.0,12.0,82,0.00,,,0.00,Wunderground v.1.15,2013-10-15 23:18:00,
2013-10-15 18:24:00,75.6,69.7,29.86,SE,136,1.0,12.0,82,0.00,,,0.00,Wunderground v.1.15,2013-10-15 23:24:00,
2013-10-15 18:30:00,75.4,69.9,29.87,SE,136,0.0,12.0,83,0.00,,,0.00,Wunderground v.1.15,2013-10-15 23:30:00,
2013-10-15 18:36:00,75.0,69.5,29.87,North,350,1.0,12.0,83,0.00,,,0.00,Wunderground v.1.15,2013-10-15 23:36:00,
2013-10-15 18:42:00,71.5,67.1,29.88,North,356,6.0,12.0,86,0.00,,,0.00,Wunderground v.1.15,2013-10-15 23:42:00,
2013-10-15 18:48:00,69.2,65.5,29.88,North,360,8.0,12.0,88,0.00,,,0.00,Wunderground v.1.15,2013-10-15 23:48:00,
2013-10-15 18:54:00,67.7,64.7,29.88,NW,305,8.0,12.0,90,0.00,,,0.00,Wunderground v.1.15,2013-10-15 23:54:00,
2013-10-15 19:00:00,66.8,64.1,29.88,NW,325,6.0,6.0,91,0.00,,,0.00,Wunderground v.1.15,2013-10-16 00:00:00,
2013-10-15 19:06:00,66.1,63.7,29.89,North,6,8.0,12.0,92,0.00,,,0.00,Wunderground v.1.15,2013-10-16 00:06:00,
2013-10-15 19:12:00,65.5,63.4,29.89,NNW,346,9.0,12.0,93,0.00,,,0.00,Wunderground v.1.15,2013-10-16 00:12:00,
2013-10-15 19:18:00,65.0,63.2,29.89,NW,322,8.0,12.0,94,0.00,,,0.00,Wunderground v.1.15,2013-10-16 00:18:00,
2013-10-15 19:24:00,64.2,62.4,29.90,NNW,338,7.0,12.0,94,0.00,,,0.00,Wunderground v.1.15,2013-10-16 00:24:00,
2013-10-15 19:30:00,63.7,62.2,29.90,North,352,7.0,7.0,95,0.00,,,0.00,Wunderground v.1.15,2013-10-16 00:30:00,
2013-10-15 19:36:00,63.3,61.8,29.89,NNE,32,7.0,12.0,95,0.00,,,0.00,Wunderground v.1.15,2013-10-16 00:36:00,
2013-10-15 19:42:00,62.8,61.3,29.90,North,350,10.0,14.0,95,0.00,,,0.00,Wunderground v.1.15,2013-10-16 00:42:00,
2013-10-15 19:48:00,62.3,60.8,29.90,NNE,23,10.0,14.0,95,0.00,,,0.00,Wunderground v.1.15,2013-10-16 00:48:00,
2013-10-15 19:54:00,61.8,60.4,29.91,NNE,18,8.0,12.0,95,0.00,,,0.00,Wunderground v.1.15,2013-10-16 00:54:00,
2013-10-15 20:00:00,61.3,60.2,29.93,NNW,338,8.0,8.0,96,0.00,,,0.00,Wunderground v.1.15,2013-10-16 01:00:00,
2013-10-15 20:06:00,61.0,59.9,29.93,NNW,337,8.0,12.0,96,0.00,,,0.00,Wunderground v.1.15,2013-10-16 01:06:00,
2013-10-15 20:12:00,60.3,59.2,29.93,NNW,345,9.0,10.0,96,0.00,,,0.00,Wunderground v.1.15,2013-10-16 01:12:00,
2013-10-15 20:18:00,59.7,58.6,29.93,North,5,8.0,12.0,96,0.00,,,0.00,Wunderground v.1.15,2013-10-16 01:18:00,
2013-10-15 20:24:00,59.1,58.0,29.93,North,349,7.0,12.0,96,0.00,,,0.00,Wunderground v.1.15,2013-10-16 01:24:00,
2013-10-15 20:30:00,58.8,57.7,29.93,NNE,13,8.0,14.0,96,0.00,,,0.00,Wunderground v.1.15,2013-10-16 01:30:00,
2013-10-15 20:36:00,58.5,57.4,29.93,North,360,9.0,17.0,96,0.00,,,0.00,Wunderground v.1.15,2013-10-16 01:36:00,
2013-10-15 20:42:00,58.1,57.0,29.93,NNW,334,11.0,17.0,96,0.00,,,0.00,Wunderground v.1.15,2013-10-16 01:42:00,
2013-10-15 20:48:00,58.0,57.2,29.94,NNE,18,10.0,17.0,97,0.00,,,0.00,Wunderground v.1.15,2013-10-16 01:48:00,
2013-10-15 20:54:00,57.8,56.7,29.94,NW,324,8.0,12.0,96,0.00,,,0.00,Wunderground v.1.15,2013-10-16 01:54:00,
2013-10-15 21:00:00,57.5,56.4,29.95,NW,316,8.0,12.0,96,0.00,,,0.00,Wunderground v.1.15,2013-10-16 02:00:00,
2013-10-15 21:06:00,57.3,56.2,29.95,North,352,8.0,12.0,96,0.00,,,0.00,Wunderground v.1.15,2013-10-16 02:06:00,
2013-10-15 21:12:00,57.0,55.9,29.95,NW,325,9.0,12.0,96,0.00,,,0.00,Wunderground v.1.15,2013-10-16 02:12:00,
2013-10-15 21:18:00,56.7,55.6,29.95,North,5,9.0,12.0,96,0.00,,,0.00,Wunderground v.1.15,2013-10-16 02:18:00,
2013-10-15 21:24:00,56.6,55.8,29.97,NW,320,8.0,12.0,97,0.00,,,0.00,Wunderground v.1.15,2013-10-16 02:24:00,
2013-10-15 21:30:00,56.5,55.7,29.97,NW,318,8.0,8.0,97,0.00,,,0.00,Wunderground v.1.15,2013-10-16 02:30:00,
2013-10-15 21:36:00,56.5,55.7,29.97,NNW,340,7.0,12.0,97,0.00,,,0.00,Wunderground v.1.15,2013-10-16 02:36:00,
2013-10-15 21:42:00,56.3,55.5,29.97,North,11,8.0,12.0,97,0.00,,,0.00,Wunderground v.1.15,2013-10-16 02:42:00,
2013-10-15 21:48:00,56.1,55.3,29.97,NNW,346,8.0,12.0,97,0.00,,,0.00,Wunderground v.1.15,2013-10-16 02:48:00,
2013-10-15 21:54:00,55.7,54.9,29.97,NNW,334,7.0,12.0,97,0.00,,,0.00,Wunderground v.1.15,2013-10-16 02:54:00,
2013-10-15 22:00:00,55.5,54.7,29.96,North,353,7.0,13.0,97,0.00,,,0.00,Wunderground v.1.15,2013-10-16 03:00:00,
2013-10-15 22:06:00,55.1,54.3,29.97,NNW,336,8.0,13.0,97,0.00,,,0.00,Wunderground v.1.15,2013-10-16 03:06:00,
2013-10-15 22:12:00,54.9,54.1,29.97,NNE,23,8.0,12.0,97,0.00,,,0.00,Wunderground v.1.15,2013-10-16 03:12:00,
2013-10-15 22:18:00,54.7,53.9,29.97,NNW,334,8.0,12.0,97,0.00,,,0.00,Wunderground v.1.15,2013-10-16 03:18:00,
2013-10-15 22:24:00,54.5,53.7,29.98,NW,307,9.0,12.0,97,0.00,,,0.00,Wunderground v.1.15,2013-10-16 03:24:00,
2013-10-15 22:30:00,54.6,53.8,29.98,NNW,328,8.0,8.0,97,0.00,,,0.00,Wunderground v.1.15,2013-10-16 03:30:00,
2013-10-15 22:36:00,54.6,53.8,29.99,NE,43,7.0,12.0,97,0.00,,,0.00,Wunderground v.1.15,2013-10-16 03:36:00,
2013-10-15 22:42:00,54.5,53.7,29.98,NNW,343,8.0,9.0,97,0.00,,,0.00,Wunderground v.1.15,2013-10-16 03:42:00,
2013-10-15 22:48:00,54.4,53.6,29.98,North,356,8.0,12.0,97,0.00,,,0.00,Wunderground v.1.15,2013-10-16 03:48:00,
2013-10-15 22:54:00,54.3,53.5,29.98,NNE,20,7.0,12.0,97,0.00,,,0.00,Wunderground v.1.15,2013-10-16 03:54:00,
2013-10-15 23:00:00,54.2,53.4,29.98,North,354,7.0,12.0,97,0.00,,,0.00,Wunderground v.1.15,2013-10-16 04:00:00,
2013-10-15 23:02:00,54.1,53.3,29.98,NNW,327,7.0,12.0,97,0.00,,,0.00,Wunderground v.1.15,2013-10-16 04:02:00,
2013-10-15 23:04:00,54.0,53.2,29.98,NNW,339,7.0,12.0,97,0.00,,,0.00,Wunderground v.1.15,2013-10-16 04:04:00,
2013-10-15 23:08:00,53.8,53.0,29.97,NNE,16,7.0,12.0,97,0.00,,,0.01,Wunderground v.1.15,2013-10-16 04:08:00,
2013-10-15 23:10:00,53.7,52.9,29.97,NNE,18,7.0,12.0,97,0.00,,,0.01,Wunderground v.1.15,2013-10-16 04:10:00,
2013-10-15 23:16:00,53.6,53.0,29.98,WNW,291,6.0,12.0,98,0.00,,,0.01,Wunderground v.1.15,2013-10-16 04:16:00,
2013-10-15 23:22:00,53.3,52.8,29.97,NNE,15,7.0,12.0,98,0.00,,,0.01,Wunderground v.1.15,2013-10-16 04:22:00,
2013-10-15 23:24:00,53.2,52.7,29.97,NNE,12,8.0,12.0,98,0.00,,,0.01,Wunderground v.1.15,2013-10-16 04:24:00,
2013-10-15 23:30:00,52.8,52.3,29.96,NNW,327,10.0,12.0,98,0.00,,,0.01,Wunderground v.1.15,2013-10-16 04:30:00,
2013-10-15 23:36:00,52.6,52.1,29.97,NNE,19,12.0,14.0,98,0.00,,,0.01,Wunderground v.1.15,2013-10-16 04:36:00,
2013-10-15 23:40:00,52.6,52.1,29.97,North,356,11.0,12.0,98,0.00,,,0.01,Wunderground v.1.15,2013-10-16 04:40:00,
2013-10-15 23:46:00,52.7,52.2,29.98,NNW,342,9.0,12.0,98,0.00,,,0.01,Wunderground v.1.15,2013-10-16 04:46:00,
2013-10-15 23:52:00,52.8,52.3,29.98,North,358,7.0,12.0,98,0.00,,,0.02,Wunderground v.1.15,2013-10-16 04:52:00,
2013-10-15 23:58:00,52.8,52.3,29.98,NNE,14,7.0,12.0,98,0.00,,,0.02,Wunderground v.1.15,2013-10-16 04:58:00,